DW3733 Luzzi (cosenza) IT current weather conditions

sailwx.info

Wind from 225 at 1 knots gusting 6

Air temperature 35.6° C
Dewpoint 17.7° C

Last reported at 2017-Aug-20 14:43 UTC.
Time now 2017-Aug-21 04:21 UTC

Location: N 39°27' E 016°16'.
View on Google Maps.

See reports from other nearby stations

  
Tides and Currents Weather Stations Pressure Air Temp Water Temp Dewpoint Dewpoint Depression Visibility Wind Speed Wind Dir Waves Ship Positions
date/time (UTC)wind fromknots sea level pressurealtimeterstation pressurevisibilityair tempwater tempwave heightnotes
2017-Aug-20 14:43 225 1 gusting 6 35.6
2017-Aug-20 14:38 310 2 gusting 6 35.6
2017-Aug-20 14:33 272 1 gusting 6 35.6
2017-Aug-20 14:28 003 3 gusting 6 36.1
2017-Aug-20 14:23 176 1 gusting 7 36.1
2017-Aug-20 14:18 005 2 gusting 6 36.7
2017-Aug-20 14:13 207 1 gusting 6 36.7
2017-Aug-20 14:08 356 2 gusting 7 37.2
2017-Aug-20 14:03 202 2 gusting 8 36.7
2017-Aug-20 13:58 191 1 gusting 5 37.2
2017-Aug-20 13:53 225 2 gusting 6 37.2
2017-Aug-20 13:48 159 2 gusting 7 37.2
2017-Aug-20 13:43 251 2 gusting 6 36.7
2017-Aug-20 13:38 005 2 gusting 6 36.7
2017-Aug-20 13:33 186 2 gusting 6 36.7
2017-Aug-20 13:28 266 3 gusting 6 36.7
2017-Aug-20 13:23 315 2 gusting 6 36.7
2017-Aug-20 13:18 002 4 gusting 7 36.7
2017-Aug-20 13:13 245 3 gusting 7 36.7
2017-Aug-20 13:08 174 1 gusting 10 36.7
2017-Aug-20 13:03 230 3 gusting 6 36.7
2017-Aug-20 12:58 36.7
2017-Aug-20 12:53 253 2 gusting 7 36.7
2017-Aug-20 12:48 284 2 gusting 6 36.7
2017-Aug-20 12:43 225 3 gusting 11 36.7
2017-Aug-20 12:38 178 2 gusting 6 36.7
2017-Aug-20 12:33 36.7
2017-Aug-20 12:28 180 3 gusting 8 36.7
2017-Aug-20 12:23 225 4 gusting 8 36.7
2017-Aug-20 12:18 093 2 gusting 6 36.7
2017-Aug-20 12:13 180 2 gusting 6 36.7
2017-Aug-20 12:08 266 1 gusting 8 37.2
2017-Aug-20 12:03 315 5 gusting 8 37.2
2017-Aug-20 11:58 359 1 gusting 5 36.7
2017-Aug-20 11:53 225 1 gusting 5 36.7
2017-Aug-20 11:48 323 0 gusting 6 36.7
2017-Aug-20 11:43 270 3 gusting 6 36.7
2017-Aug-20 11:38 003 2 gusting 6 36.7
2017-Aug-20 11:33 045 2 gusting 6 36.1
2017-Aug-20 11:28 001 2 gusting 5 36.7
2017-Aug-20 11:23 002 1 gusting 5 36.1
2017-Aug-20 11:18 041 0 gusting 6 36.1
2017-Aug-20 11:13 180 2 gusting 6 36.7
2017-Aug-20 11:08 294 3 gusting 6 36.1
2017-Aug-20 11:03 273 1 gusting 5 36.1
2017-Aug-20 10:58 340 1 gusting 5 36.1
2017-Aug-20 10:53 004 1 gusting 5 36.1
2017-Aug-20 10:48 045 2 gusting 5 36.7
2017-Aug-20 10:43 315 0 gusting 2 36.1
2017-Aug-20 10:38 273 0 gusting 2 35.6
2017-Aug-20 10:33 020 2 gusting 5 35.6
2017-Aug-20 10:28 041 0 gusting 4 35.6
2017-Aug-20 10:23 321 1 gusting 6 35.6
2017-Aug-20 10:18 085 1 gusting 5 35.6
2017-Aug-20 10:13 356 1 gusting 4 35.6
2017-Aug-20 10:08 101 1 gusting 4 35.6
2017-Aug-20 10:03 135 1 gusting 4 35.6
2017-Aug-20 09:58 312 1 gusting 5 35.6
2017-Aug-20 09:53 315 0 gusting 5 35.0
2017-Aug-20 09:48 178 1 gusting 5 35.0
2017-Aug-20 09:43 264 2 gusting 6 35.0
2017-Aug-20 09:38 094 3 gusting 6 35.0
2017-Aug-20 09:33 315 1 gusting 4 34.4
2017-Aug-20 09:28 225 2 gusting 6 34.4
2017-Aug-20 09:23 225 2 gusting 6 34.4
2017-Aug-20 09:18 225 2 gusting 6 34.4
2017-Aug-20 09:13 143 2 gusting 5 34.4
2017-Aug-20 09:08 310 2 gusting 5 33.9
2017-Aug-20 09:03 227 0 gusting 4 33.9
2017-Aug-20 08:58 236 1 gusting 6 33.9
2017-Aug-20 08:53 138 2 gusting 6 33.9
2017-Aug-20 08:48 313 2 gusting 6 33.9
2017-Aug-20 08:43 268 1 gusting 5 33.3
2017-Aug-20 08:38 315 0 gusting 6 33.3
2017-Aug-20 08:33 268 1 gusting 6 33.3
2017-Aug-20 08:28 175 0 gusting 6 32.8
2017-Aug-20 08:23 228 2 gusting 5 32.8
2017-Aug-20 08:18 310 2 gusting 6 32.8
2017-Aug-20 08:13 225 3 gusting 6 32.8
2017-Aug-20 08:08 357 2 gusting 7 32.8
2017-Aug-20 08:03 227 2 gusting 6 32.8
2017-Aug-20 07:58 185 3 gusting 6 32.2
2017-Aug-20 07:53 315 3 gusting 6 32.2
2017-Aug-20 07:48 225 2 gusting 7 32.2
2017-Aug-20 07:43 270 2 gusting 7 31.7
2017-Aug-20 07:38 227 5 gusting 8 31.7
2017-Aug-20 07:33 307 4 gusting 8 31.1
2017-Aug-20 07:28 180 4 gusting 7 31.1
2017-Aug-20 07:23 311 2 gusting 6 31.1
2017-Aug-20 07:18 306 2 gusting 6 30.6
2017-Aug-20 07:13 261 2 gusting 6 30.0
2017-Aug-20 07:08 225 3 gusting 5 30.0
2017-Aug-20 07:03 225 2 gusting 5 29.4
2017-Aug-20 06:58 261 3 gusting 6 29.4
2017-Aug-20 06:53 185 1 gusting 6 28.9
2017-Aug-20 06:48 229 2 gusting 6 28.9
2017-Aug-20 06:43 189 2 gusting 6 28.3
2017-Aug-20 06:38 180 3 gusting 6 28.3
2017-Aug-20 06:33 265 2 gusting 6 27.8
2017-Aug-20 06:28 219 2 gusting 5 27.8
2017-Aug-20 06:23 226 1 gusting 4 27.2
2017-Aug-20 06:18 144 0 gusting 6 27.2
2017-Aug-20 06:13 222 1 gusting 4 26.7
2017-Aug-20 06:08 180 1 gusting 4 26.7
2017-Aug-20 06:03 139 2 gusting 4 26.1
2017-Aug-20 05:58 180 0 gusting 5 26.1
2017-Aug-20 05:53 204 2 gusting 5 25.6
2017-Aug-20 05:48 311 1 gusting 4 25.6
2017-Aug-20 05:43 161 2 gusting 6 25.6
2017-Aug-20 05:38 205 0 gusting 5 25.6
2017-Aug-20 05:33 092 1 gusting 5 25.0
2017-Aug-20 05:28 264 0 gusting 4 25.0
2017-Aug-20 05:23 231 0 gusting 4 25.0
2017-Aug-20 05:18 225 0 gusting 5 24.4
2017-Aug-20 05:13 225 1 gusting 5 24.4
2017-Aug-20 05:08 270 1 gusting 6 24.4
2017-Aug-20 05:03 270 0 gusting 5 23.9
2017-Aug-20 04:58 270 0 gusting 2 23.9
2017-Aug-20 04:53 141 1 gusting 2 23.9
2017-Aug-20 04:48 262 1 gusting 2 23.9
2017-Aug-20 04:43 270 0 gusting 5 23.9
2017-Aug-20 04:38 160 2 gusting 5 23.9
2017-Aug-20 04:33 171 1 gusting 4 23.9
2017-Aug-20 04:28 135 0 gusting 2 23.9
2017-Aug-20 04:23 135 0 gusting 4 24.4
2017-Aug-20 04:18 225 1 gusting 4 24.4
2017-Aug-20 04:13 228 2 gusting 5 24.4
2017-Aug-20 04:08 180 1 gusting 5 24.4
2017-Aug-20 04:03 217 2 gusting 5 24.4
2017-Aug-20 03:58 265 2 gusting 4 24.4
2017-Aug-20 03:53 278 1 gusting 2 23.9
2017-Aug-20 03:48 229 2 gusting 4 23.9
2017-Aug-20 03:43 116 1 gusting 4 23.9
2017-Aug-20 03:38 180 2 gusting 5 24.4
2017-Aug-20 03:33 222 1 gusting 4 24.4
2017-Aug-20 03:28 141 1 gusting 4 24.4
2017-Aug-20 03:23 187 1 gusting 2 24.4
2017-Aug-20 03:18 264 0 gusting 5 24.4
2017-Aug-20 03:13 270 0 gusting 2 23.9
2017-Aug-20 03:08 185 0 gusting 4 24.4
2017-Aug-20 03:03 180 2 gusting 4 24.4
2017-Aug-20 02:58 209 0 gusting 2 24.4
2017-Aug-20 02:53 315 1 gusting 2 23.9
2017-Aug-20 02:48 261 0 gusting 2 24.4
2017-Aug-20 02:43 276 1 gusting 4 23.9
2017-Aug-20 02:38 182 0 gusting 4 24.4
2017-Aug-20 02:33 177 1 gusting 4 24.4
2017-Aug-20 02:28 136 1 gusting 4 24.4
2017-Aug-20 02:23 291 0 gusting 4 24.4
2017-Aug-20 02:18 137 1 gusting 4 24.4
2017-Aug-20 02:13 135 0 gusting 2 24.4
2017-Aug-20 02:08 270 1 gusting 2 24.4
2017-Aug-20 02:03 090 1 gusting 4 24.4
2017-Aug-20 01:58 177 1 gusting 4 24.4
2017-Aug-20 01:53 270 0 gusting 2 24.4
2017-Aug-20 01:48 225 1 gusting 2 25.0
2017-Aug-20 01:43 270 1 gusting 4 25.0
2017-Aug-20 01:38 225 1 gusting 2 25.0
2017-Aug-20 01:33 309 1 gusting 5 25.0
2017-Aug-20 01:28 182 0 gusting 2 25.0
2017-Aug-20 01:23 139 0 gusting 2 25.0
2017-Aug-20 01:18 336 0 gusting 2 25.0
2017-Aug-20 01:13 177 1 gusting 2 25.0
2017-Aug-20 01:08 191 0 gusting 1 25.0
2017-Aug-20 01:03 191 0 gusting 1 25.0
2017-Aug-20 00:58 220 0 gusting 2 25.0
2017-Aug-20 00:53 222 0 gusting 2 25.0
2017-Aug-20 00:48 286 0 gusting 4 25.0
2017-Aug-20 00:43 180 2 gusting 4 25.0
2017-Aug-20 00:38 216 0 gusting 2 25.0
2017-Aug-20 00:33 273 0 gusting 4 25.0
2017-Aug-20 00:28 254 0 gusting 2 25.0
2017-Aug-20 00:23 270 0 gusting 2 25.6
2017-Aug-20 00:18 236 2 gusting 5 25.0
2017-Aug-20 00:13 224 1 gusting 4 25.6
2017-Aug-20 00:08 222 0 gusting 2 25.6
2017-Aug-20 00:03 135 0 gusting 2 25.6
2017-Aug-19 23:58 181 1 gusting 2 25.6
2017-Aug-19 23:53 272 0 gusting 2 25.6
2017-Aug-19 23:48 264 0 gusting 1 25.6
2017-Aug-19 23:43 225 0 gusting 2 25.6
2017-Aug-19 23:38 264 0 gusting 2 25.6
2017-Aug-19 23:33 180 1 gusting 4 25.6
2017-Aug-19 23:28 176 2 gusting 5 25.6
2017-Aug-19 23:23 203 1 gusting 2 25.6
2017-Aug-19 23:18 181 1 gusting 2 26.1
2017-Aug-19 23:13 229 1 gusting 4 26.1
2017-Aug-19 23:08 186 2 gusting 4 26.1
2017-Aug-19 23:03 236 1 gusting 4 26.1
2017-Aug-19 22:58 267 2 gusting 5 26.1
2017-Aug-19 22:53 266 1 gusting 4 26.1
2017-Aug-19 22:48 180 1 gusting 2 26.1
2017-Aug-19 22:43 189 2 gusting 4 26.1
2017-Aug-19 22:38 180 3 gusting 5 26.1
2017-Aug-19 22:33 270 1 gusting 5 26.1
2017-Aug-19 22:28 228 1 gusting 5 26.1
2017-Aug-19 22:23 099 2 gusting 5 26.1
2017-Aug-19 22:18 176 2 gusting 5 25.0
2017-Aug-19 22:13 150 1 gusting 2 24.4
2017-Aug-19 22:08 136 0 gusting 2 25.6
2017-Aug-19 22:03 270 0 gusting 2 25.6
2017-Aug-19 21:58 090 0 gusting 2 25.6
2017-Aug-19 21:53 135 0 gusting 1 25.6
2017-Aug-19 21:48 102 1 gusting 5 25.6
2017-Aug-19 21:43 132 2 gusting 4 26.1
2017-Aug-19 21:38 270 2 gusting 4 26.7
2017-Aug-19 21:33 353 0 gusting 2 26.7
2017-Aug-19 21:28 225 0 gusting 2 27.2
2017-Aug-19 21:23 302 1 gusting 4 27.2
2017-Aug-19 21:18 131 2 gusting 5 27.2
2017-Aug-19 21:13 312 2 gusting 5 27.2
2017-Aug-19 21:08 183 1 gusting 2 27.2
2017-Aug-19 21:03 229 27.2
2017-Aug-19 20:58 264 1 gusting 4 27.2
2017-Aug-19 20:53 267 0 gusting 5 27.2
2017-Aug-19 20:48 216 0 gusting 5 27.2
2017-Aug-19 20:43 135 4 gusting 6 27.2
2017-Aug-19 20:38 186 1 gusting 2 27.8
2017-Aug-19 20:33 223 1 gusting 2 27.8
2017-Aug-19 20:28 228 1 gusting 2 27.8
2017-Aug-19 20:23 225 0 gusting 2 27.8
2017-Aug-19 20:18 135 2 gusting 4 27.8
2017-Aug-19 20:13 180 0 gusting 2 27.8
2017-Aug-19 20:08 223 0 gusting 1 28.3
2017-Aug-19 20:03 202 0 gusting 2 28.3
2017-Aug-19 19:58 267 1 gusting 2 28.3
2017-Aug-19 19:53 180 0 gusting 2 28.3
2017-Aug-19 19:48 226 1 gusting 2 28.3
2017-Aug-19 19:43 303 0 gusting 2 28.9
2017-Aug-19 19:38 229 0 gusting 2 28.9
2017-Aug-19 19:33 270 0 gusting 2 28.3
2017-Aug-19 19:28 270 28.3
2017-Aug-19 19:23 180 0 gusting 2 27.8
2017-Aug-19 19:18 180 0 gusting 2 28.3
2017-Aug-19 19:13 049 0 gusting 1 28.9
2017-Aug-19 19:08 140 0 gusting 1 28.9
2017-Aug-19 19:03 229 0 gusting 2 28.9
2017-Aug-19 18:58 277 0 gusting 1 28.9
2017-Aug-19 18:53 135 0 gusting 2 28.9
2017-Aug-19 18:48 152 1 gusting 2 28.9
2017-Aug-19 18:43 098 0 gusting 1 29.4
2017-Aug-19 18:38 199 0 gusting 1 30.0
2017-Aug-19 18:33 231 0 gusting 2 30.0
2017-Aug-19 18:28 222 1 gusting 2 30.0
2017-Aug-19 18:23 171 0 gusting 2 30.6
2017-Aug-19 18:18 184 0 gusting 2 30.6
2017-Aug-19 18:13 225 2 gusting 5 31.1
2017-Aug-19 18:08 180 31.1
2017-Aug-19 18:03 180 0 gusting 2 31.1
2017-Aug-19 17:58 182 0 gusting 2 31.1
2017-Aug-19 17:53 270 0 gusting 4 31.7
2017-Aug-19 17:48 184 0 gusting 2 31.7
2017-Aug-19 17:43 249 0 gusting 2 32.2
2017-Aug-19 17:38 265 1 gusting 4 32.2
2017-Aug-19 17:33 181 0 gusting 4 32.2
2017-Aug-19 17:28 140 0 gusting 4 32.2
2017-Aug-19 17:23 270 2 gusting 2 32.8
2017-Aug-19 17:18 225 0 gusting 2 32.8
2017-Aug-19 17:13 228 1 gusting 2 32.8
2017-Aug-19 17:08 272 1 gusting 4 32.8
2017-Aug-19 17:03 268 1 gusting 4 32.8
2017-Aug-19 16:58 225 1 gusting 5 32.8
2017-Aug-19 16:53 225 2 gusting 6 32.8
2017-Aug-19 16:48 273 3 gusting 6 33.3
2017-Aug-19 16:43 273 2 gusting 5 33.3
2017-Aug-19 16:38 225 3 gusting 6 33.3
2017-Aug-19 16:33 225 1 gusting 5 33.3
2017-Aug-19 16:28 265 2 gusting 6 33.9
2017-Aug-19 16:23 315 2 gusting 6 33.9
2017-Aug-19 16:18 227 0 gusting 6 33.9
2017-Aug-19 16:13 228 2 gusting 6 33.9
2017-Aug-19 16:08 221 2 gusting 6 34.4
2017-Aug-19 16:03 230 0 gusting 5 34.4
2017-Aug-19 15:58 310 0 gusting 5 34.4
2017-Aug-19 15:53 042 3 gusting 5 35.0
2017-Aug-19 15:48 128 2 gusting 5 34.4
2017-Aug-19 15:43 180 1 gusting 5 35.0
2017-Aug-19 15:38 315 1 gusting 5 35.0
2017-Aug-19 15:33 206 3 gusting 6 35.0
2017-Aug-19 15:28 186 2 gusting 5 35.0
2017-Aug-19 15:23 274 2 gusting 6 35.6
2017-Aug-19 15:18 310 2 gusting 5 35.6
2017-Aug-19 15:13 315 1 gusting 6 35.6
2017-Aug-19 15:08 356 2 gusting 5 35.6
2017-Aug-19 15:03 312 2 gusting 6 36.1
2017-Aug-19 14:58 291 2 gusting 10 36.1
2017-Aug-19 14:53 211 3 gusting 10 36.1
2017-Aug-19 14:48 259 2 gusting 7 36.7
2017-Aug-19 14:43 204 1 gusting 6 36.7
2017-Aug-19 14:38 230 2 gusting 5 36.7
2017-Aug-19 14:33 081 2 gusting 6 36.7
2017-Aug-19 14:28 039 2 gusting 6 36.7
2017-Aug-19 14:23 36.7
2017-Aug-19 14:18 292 4 gusting 7 36.7
2017-Aug-19 14:13 318 3 gusting 6 36.7
2017-Aug-19 14:08 321 4 gusting 7 36.7
2017-Aug-19 14:03 37.2
2017-Aug-19 13:58 039 3 gusting 6 37.2
2017-Aug-19 13:53 045 4 gusting 7 37.2
2017-Aug-19 13:48 306 2 gusting 6 37.2
2017-Aug-19 13:43 322 3 gusting 6 37.8
2017-Aug-19 13:38 051 2 gusting 6 37.8
2017-Aug-19 13:33 306 1 gusting 6 37.2
2017-Aug-19 13:28 006 2 gusting 8 37.2
2017-Aug-19 13:23 045 3 gusting 8 37.2
2017-Aug-19 13:18 341 4 gusting 8 37.2
2017-Aug-19 13:08 178 1 gusting 6 37.8
2017-Aug-19 13:03 37.8
2017-Aug-19 12:58 090 2 gusting 5 37.8
2017-Aug-19 12:53 180 3 gusting 7 37.8
2017-Aug-19 12:48 090 1 gusting 6 37.8
2017-Aug-19 12:43 214 5 gusting 8 37.8
2017-Aug-19 12:38 37.2
2017-Aug-19 12:33 040 3 gusting 7 37.2
2017-Aug-19 12:28 338 2 gusting 8 37.2
2017-Aug-19 12:23 318 2 gusting 6 37.2
2017-Aug-19 12:18 158 3 gusting 6 37.2
2017-Aug-19 12:13 004 3 gusting 6 37.8
2017-Aug-19 12:08 041 4 gusting 6 37.2
2017-Aug-19 12:03 37.2
2017-Aug-19 11:58 004 4 gusting 8 37.2
2017-Aug-19 11:53 265 3 gusting 6 37.2
2017-Aug-19 11:48 041 1 gusting 7 37.2
2017-Aug-19 11:43 236 2 gusting 5 36.7
2017-Aug-19 11:38 356 2 gusting 5 36.7
2017-Aug-19 11:33 323 4 gusting 8 36.1
2017-Aug-19 11:28 36.1
2017-Aug-19 11:23 36.7
2017-Aug-19 11:18 228 2 gusting 5 36.7
2017-Aug-19 11:13 37.2
2017-Aug-19 11:08 349 2 gusting 5 37.2
2017-Aug-19 11:03 37.2
2017-Aug-19 10:58 172 2 gusting 5 37.8
2017-Aug-19 10:53 041 0 gusting 6 37.2
2017-Aug-19 10:48 044 1 gusting 4 37.2
2017-Aug-19 10:43 126 2 gusting 4 37.2
2017-Aug-19 10:38 049 2 gusting 5 37.2
2017-Aug-19 10:33 322 1 gusting 2 37.2
2017-Aug-19 10:28 37.2
2017-Aug-19 10:23 054 0 gusting 5 37.2
2017-Aug-19 10:18 336 1 gusting 2 37.2
2017-Aug-19 10:13 36.7
2017-Aug-19 10:08 229 0 gusting 5 36.7
2017-Aug-19 10:03 135 1 gusting 6 36.7
2017-Aug-19 09:58 141 0 gusting 4 36.1
2017-Aug-19 09:53 229 1 gusting 4 36.1
2017-Aug-19 09:48 175 0 gusting 4 35.6
2017-Aug-19 09:43 35.6
2017-Aug-19 09:38 180 2 gusting 6 35.6
2017-Aug-19 09:33 185 0 gusting 2 35.6
2017-Aug-19 09:28 180 0 gusting 5 35.6
2017-Aug-19 09:23 35.6
2017-Aug-19 09:18 186 0 gusting 2 35.0
2017-Aug-19 09:13 270 34.4
2017-Aug-19 09:08 319 0 gusting 4 34.4
2017-Aug-19 09:03 006 1 gusting 5 34.4
2017-Aug-19 08:58 357 1 gusting 2 34.4
2017-Aug-19 08:53 34.4
2017-Aug-19 08:48 311 0 gusting 1 33.9
2017-Aug-19 08:43 355 0 gusting 4 33.3
2017-Aug-19 08:38 039 0 gusting 2 33.3
2017-Aug-19 08:33 32.8
2017-Aug-19 08:28 315 1 gusting 2 32.8
2017-Aug-19 08:23 045 0 gusting 2 32.8
2017-Aug-19 08:18 004 0 gusting 2 32.2
2017-Aug-19 08:13 317 0 gusting 2 32.2
2017-Aug-19 08:08 359 1 gusting 2 31.7
2017-Aug-19 08:03 049 0 gusting 1 31.1
2017-Aug-19 07:58 31.1
2017-Aug-19 07:53 30.6
2017-Aug-19 07:48 049 0 gusting 1 30.6
2017-Aug-19 07:43 356 0 gusting 1 30.0
2017-Aug-19 07:38 041 0 gusting 2 29.4
2017-Aug-19 07:33 313 0 gusting 2 29.4
2017-Aug-19 07:28 315 1 gusting 2 29.4
2017-Aug-19 07:23 184 0 gusting 1 28.9
2017-Aug-19 07:18 244 0 gusting 1 28.9
2017-Aug-19 07:13 267 0 gusting 1 28.3
2017-Aug-19 07:08 137 0 gusting 1 28.3
2017-Aug-19 07:03 27.8
2017-Aug-19 06:58 27.8
2017-Aug-19 06:53 090 0 gusting 1 27.2
2017-Aug-19 06:48 273 0 gusting 1 26.7
2017-Aug-19 06:43 315 0 gusting 1 26.7
2017-Aug-19 06:38 26.1
2017-Aug-19 06:33 317 0 gusting 1 26.1
2017-Aug-19 06:28 319 0 gusting 1 26.1
2017-Aug-19 06:23 276 26.1
2017-Aug-19 06:18 355 25.6
2017-Aug-19 06:13 277 0 gusting 0 25.6
2017-Aug-19 06:08 315 25.0
2017-Aug-19 06:03 090 24.4
2017-Aug-19 05:58 090 23.9
2017-Aug-19 05:53 090 23.3
2017-Aug-19 05:48 275 23.3
2017-Aug-19 05:43 315 0 gusting 1 22.8
2017-Aug-19 05:38 318 0 gusting 0 22.8
2017-Aug-19 05:33 270 22.2
2017-Aug-19 05:28 270 21.7
2017-Aug-19 05:23 310 21.1
2017-Aug-19 05:18 315 20.6
2017-Aug-19 05:13 180 0 gusting 0 20.6
2017-Aug-19 05:08 225 0 gusting 0 20.6
2017-Aug-19 05:03 229 20.6
2017-Aug-19 04:58 270 20.6
2017-Aug-19 04:53 315 20.6
2017-Aug-19 04:48 315 0 gusting 1 20.6
2017-Aug-19 04:43 270 20.0
2017-Aug-19 04:38 183 0 gusting 2 20.0
2017-Aug-19 04:33 133 0 gusting 2 20.0
2017-Aug-19 04:28 096 1 gusting 2 20.0
2017-Aug-19 04:23 130 0 gusting 1 20.0
2017-Aug-19 04:18 090 0 gusting 2 20.0
2017-Aug-19 04:13 127 0 gusting 1 20.0
2017-Aug-19 04:08 315 20.0
2017-Aug-19 04:03 135 0 gusting 1 20.0